Ketchikan, AK

9:31 AM AKST on February 27, 2017 (GMT -0900)
Ketchikan International

Weather History for PAKT - February, 2013

Change the Weather History Date:

Friday, February 1, 2013

  Actual Average Record
Temperature  
Mean Temperature 43 °F -  
Max Temperature 44 °F 39 °F 55 °F (1998)
Min Temperature 42 °F 28 °F 5 °F (1989)
Degree Days  
Heating Degree Days 22    
Moisture  
Dew Point 42 °F    
Average Humidity 96    
Maximum Humidity 100    
Minimum Humidity 93    
Precipitation  
Precipitation 1.25 in - - ()
Sea Level Pressure  
Sea Level Pressure 30.21 in    
Wind  
Wind Speed 12 mph (SE)    
Max Wind Speed 20 mph    
Max Gust Speed 26 mph    
Visibility 6 miles    
Events Rain    
Averages and records for this station are not official NWS values.
T = Trace of Precipitation, MM = Missing Value Source: NWS Daily Summary

Daily Weather History Graph

Daily Weather History Graph

Search for Another Location

Airport or City:

Trip Planner

Search our weather history database for the weather conditions in past years. The results will help you decide how hot, cold, wet, or windy it might be!

Date:

Astronomy

Feb. 01, 2013 Rise Set
Actual Time 7:38 AM AKST 4:23 PM AKST
Civil Twilight 6:57 AM AKST 5:03 PM AKST
Nautical Twilight 6:13 AM AKST 5:48 PM AKST
Astronomical Twilight 5:31 AM AKST 6:30 PM AKST
Moon 11:55 PM AKST (2/1) 9:05 AM AKST (2/1)
Length of Visible Light 10h 05m
Length of Day
8h 45m
Waning Gibbous, 69% of the Moon is Illuminated
Feb 1
Waning Gibbous
Feb 3
Last Quarter
Feb 9
New
Feb 17
First Quarter
Feb 25
Full

Hourly Weather History & Observations

Time (AKST) Temp. Windchill Dew Point Humidity Pressure Visibility Wind Dir Wind Speed Gust Speed Precip Events Conditions
12:00 AM 42.8 °F 38.0 °F 41.0 °F 93% 30.20 in 3.0 mi SSE 8.1 mph - 0.00 in Rain Light Rain
12:25 AM 42.8 °F 38.0 °F 41.0 °F 93% 30.20 in 6.0 mi SE 8.1 mph - 0.02 in Rain Light Rain
12:53 AM 42.1 °F 37.1 °F 41.0 °F 96% 30.21 in 5.0 mi SSE 8.1 mph - 0.03 in Rain Light Rain
1:12 AM 42.8 °F 38.0 °F 42.8 °F 100% 30.21 in 2.5 mi SE 8.1 mph - 0.01 in Rain Light Rain
1:33 AM 42.8 °F 38.0 °F 42.8 °F 100% 30.22 in 3.0 mi SSE 8.1 mph - 0.02 in Rain Light Rain
1:35 AM 42.8 °F 37.5 °F 42.8 °F 100% 30.22 in 2.5 mi SE 9.2 mph - 0.02 in Rain Light Rain
1:53 AM 43.0 °F 36.8 °F 42.1 °F 97% 30.22 in 2.5 mi SE 11.5 mph - 0.03 in Rain Light Rain
2:14 AM 42.8 °F 37.5 °F 42.8 °F 100% 30.21 in 3.0 mi SE 9.2 mph - 0.00 in Rain Light Rain
2:26 AM 42.8 °F 37.0 °F 42.8 °F 100% 30.21 in 2.5 mi SE 10.4 mph - 0.01 in Rain Light Rain
3:02 AM 42.8 °F 37.0 °F 42.8 °F 100% 30.20 in 1.8 mi SE 10.4 mph - 0.00 in Rain Light Rain
3:10 AM 42.8 °F 36.2 °F 42.8 °F 100% 30.20 in 2.0 mi SE 12.7 mph - 0.01 in Rain Light Rain
3:53 AM 43.0 °F 36.0 °F 42.1 °F 97% 30.20 in 2.5 mi SE 13.8 mph - 0.02 in Rain Light Rain
4:03 AM 42.8 °F 35.8 °F 42.8 °F 100% 30.20 in 2.5 mi ESE 13.8 mph - 0.01 in Rain Light Rain
4:12 AM 42.8 °F 35.8 °F 42.8 °F 100% 30.20 in 3.0 mi SE 13.8 mph - 0.02 in Rain Light Rain
4:29 AM 42.8 °F 35.4 °F 42.8 °F 100% 30.20 in 2.0 mi SE 15.0 mph - 0.04 in Rain Light Rain
4:40 AM 42.8 °F 36.6 °F 42.8 °F 100% 30.20 in 3.0 mi SE 11.5 mph - 0.05 in Rain Light Rain
4:53 AM 43.0 °F 37.7 °F 42.1 °F 97% 30.21 in 5.0 mi SSE 9.2 mph - 0.05 in Rain Light Rain
5:30 AM 42.8 °F 35.4 °F 42.8 °F 100% 30.20 in 7.0 mi SE 15.0 mph - 0.05 in Rain Light Rain
5:53 AM 43.0 °F 35.4 °F 42.1 °F 97% 30.21 in 7.0 mi SE 16.1 mph - 0.08 in Rain Light Rain
6:05 AM 44.6 °F 37.8 °F 42.8 °F 93% 30.20 in 7.0 mi SE 15.0 mph - 0.02 in Rain Rain
6:53 AM 43.0 °F 35.4 °F 42.1 °F 97% 30.21 in 10.0 mi SE 16.1 mph - 0.07 in Rain Light Rain
7:06 AM 42.8 °F 35.1 °F 42.8 °F 100% 30.20 in 9.0 mi SE 16.1 mph 24.2 mph 0.01 in Rain Light Rain
7:53 AM 42.8 °F 35.1 °F 42.8 °F 100% 30.21 in 6.0 mi SE 16.1 mph 23.0 mph N/A Rain Light Rain
8:53 AM 43.0 °F 35.4 °F 41.0 °F 93% 30.22 in 8.0 mi SE 16.1 mph - 0.02 in Rain Light Rain
9:53 AM 43.0 °F 38.2 °F 41.0 °F 93% 30.23 in 10.0 mi SSE 8.1 mph - 0.04 in Rain Light Rain
10:53 AM 43.0 °F 36.8 °F 41.0 °F 93% 30.24 in 8.0 mi SE 11.5 mph - 0.05 in Rain Light Rain
11:53 AM 43.0 °F 36.0 °F 42.1 °F 97% 30.23 in 3.0 mi SE 13.8 mph 20.7 mph 0.06 in Rain Light Rain
12:08 PM 42.8 °F 34.8 °F 42.8 °F 100% 30.23 in 2.0 mi SE 17.3 mph - 0.01 in Rain Light Rain
12:53 PM 44.1 °F 36.5 °F 42.1 °F 93% 30.22 in 2.0 mi SE 17.3 mph - 0.06 in Rain Light Rain
1:53 PM 44.1 °F 37.4 °F 42.1 °F 93% 30.22 in 1.5 mi SE 13.8 mph - 0.10 in Rain Rain
2:53 PM 44.1 °F 37.1 °F 42.1 °F 93% 30.22 in 3.0 mi SE 15.0 mph 20.7 mph 0.13 in Rain Light Rain
3:38 PM 44.6 °F 39.2 °F 42.8 °F 93% 30.20 in 2.0 mi SE 10.4 mph 20.7 mph 0.05 in Rain Light Rain
3:53 PM 44.1 °F 37.1 °F 42.1 °F 93% 30.20 in 4.0 mi SE 15.0 mph 23.0 mph 0.08 in Rain Light Rain
4:53 PM 44.1 °F 37.7 °F 42.1 °F 93% 30.19 in 10.0 mi SE 12.7 mph - 0.01 in   Overcast
5:53 PM 44.1 °F 37.7 °F 42.1 °F 93% 30.20 in 8.0 mi SSE 12.7 mph - 0.06 in Rain Light Rain
5:54 PM 44.6 °F 38.4 °F 42.8 °F 93% 30.20 in 8.0 mi SSE 12.7 mph - 0.00 in Rain Light Rain
6:53 PM 44.1 °F 37.1 °F 42.1 °F 93% 30.20 in 6.0 mi SE 15.0 mph 23.0 mph 0.09 in Rain Rain
7:53 PM 44.1 °F 37.7 °F 43.0 °F 96% 30.19 in 3.0 mi SSE 12.7 mph - 0.12 in Rain Light Rain
8:53 PM 44.1 °F 37.7 °F 42.1 °F 93% 30.19 in 10.0 mi SE 12.7 mph - 0.07 in Rain Light Rain
9:43 PM 44.6 °F 37.4 °F 42.8 °F 93% 30.19 in 10.0 mi SSE 16.1 mph 25.3 mph 0.07 in Rain Light Rain
9:53 PM 44.1 °F 36.5 °F 42.1 °F 93% 30.19 in 10.0 mi SE 17.3 mph 24.2 mph 0.07 in   Overcast
10:05 PM 44.6 °F 38.8 °F 42.8 °F 93% 30.19 in 6.0 mi SSE 11.5 mph - 0.00 in Rain Light Rain
10:53 PM 44.1 °F 36.8 °F 42.1 °F 93% 30.19 in 10.0 mi SSE 16.1 mph 21.9 mph 0.01 in Rain Light Rain
11:25 PM 44.6 °F 37.4 °F 42.8 °F 93% 30.19 in 10.0 mi SE 16.1 mph 24.2 mph 0.00 in Rain Light Rain
11:37 PM 44.6 °F 39.7 °F 42.8 °F 93% 30.18 in 10.0 mi SSE 9.2 mph 23.0 mph 0.00 in   Overcast
11:53 PM 44.1 °F 35.9 °F 42.1 °F 93% 30.19 in 10.0 mi SE 19.6 mph 26.5 mph 0.00 in Rain Light Rain